Wetterdaten: Montag, 19.07.2004
Datum Zeit Temp. A Sch. Temp. A Son. Feuchte A. Luftdruck Regen Wind Richtung Richtung Sonnenschein Helligkeit Taupunkt Windchill
19.07.2004 00:00 16,9 C 17,1 C 94 % 1016 hPa 0,0 l/m 0,0 m/s (0 Bft) O 80 0,00 min 0 lux 15,9 C 16,9 C
19.07.2004 00:05 16,9 C 17,1 C 94 % 1016 hPa 0,0 l/m 0,0 m/s (0 Bft) O 80 0,00 min 0 lux 15,9 C 16,9 C
19.07.2004 00:10 16,9 C 17,1 C 94 % 1016 hPa 0,0 l/m 0,0 m/s (0 Bft) O 80 0,00 min 0 lux 15,9 C 16,9 C
19.07.2004 00:15 17,0 C 17,1 C 94 % 1017 hPa 0,0 l/m 0,0 m/s (0 Bft) O 80 0,00 min 0 lux 16,0 C 17,0 C
19.07.2004 00:20 17,1 C 17,1 C 94 % 1017 hPa 0,0 l/m 0,0 m/s (0 Bft) O 80 0,00 min 0 lux 16,1 C 17,1 C
19.07.2004 00:25 17,0 C 17,1 C 94 % 1016 hPa 0,0 l/m 0,0 m/s (0 Bft) O 80 0,00 min 0 lux 16,0 C 17,0 C
19.07.2004 00:30 16,9 C 17,1 C 94 % 1016 hPa 0,0 l/m 1,5 m/s (1 Bft) O-NO 75 0,00 min 0 lux 15,9 C 16,9 C
19.07.2004 00:35 16,9 C 17,1 C 94 % 1016 hPa 0,0 l/m 0,0 m/s (0 Bft) O 85 0,00 min 0 lux 15,9 C 16,9 C
19.07.2004 00:40 16,9 C 17,1 C 94 % 1016 hPa 0,0 l/m 0,0 m/s (0 Bft) O 85 0,00 min 0 lux 15,9 C 16,9 C
19.07.2004 00:45 17,0 C 17,2 C 94 % 1016 hPa 0,0 l/m 0,1 m/s (0 Bft) NO67.5 45 0,00 min 0 lux 16,0 C 17,0 C
19.07.2004 00:50 17,0 C 17,2 C 94 % 1016 hPa 0,0 l/m 0,0 m/s (0 Bft) NW 315 0,00 min 0 lux 16,0 C 17,0 C
19.07.2004 00:55 16,9 C 17,2 C 95 % 1016 hPa 0,0 l/m 0,0 m/s (0 Bft) NW 315 0,00 min 0 lux 16,1 C 16,9 C
19.07.2004 01:00 17,0 C 17,2 C 94 % 1016 hPa 0,0 l/m 0,0 m/s (0 Bft) NW22.5 320 0,00 min 0 lux 16,0 C 17,0 C
19.07.2004 01:05 16,9 C 17,2 C 94 % 1016 hPa 0,0 l/m 0,0 m/s (0 Bft) W45 280 0,00 min 0 lux 15,9 C 16,9 C
19.07.2004 01:10 16,8 C 17,2 C 94 % 1017 hPa 0,0 l/m 0,0 m/s (0 Bft) W-SW 240 0,00 min 0 lux 15,8 C 16,8 C
19.07.2004 01:15 16,8 C 17,2 C 94 % 1017 hPa 0,0 l/m 0,0 m/s (0 Bft) W-SW 240 0,00 min 0 lux 15,8 C 16,8 C
19.07.2004 01:20 16,9 C 17,1 C 94 % 1017 hPa 0,0 l/m 0,0 m/s (0 Bft) SW 230 0,00 min 0 lux 15,9 C 16,9 C
19.07.2004 01:25 16,8 C 17,1 C 94 % 1017 hPa 0,0 l/m 0,0 m/s (0 Bft) SW 235 0,00 min 0 lux 15,8 C 16,8 C
19.07.2004 01:30 16,8 C 17,1 C 94 % 1017 hPa 0,0 l/m 0,0 m/s (0 Bft) SW 235 0,00 min 0 lux 15,8 C 16,8 C
19.07.2004 01:35 16,7 C 17,1 C 94 % 1017 hPa 0,0 l/m 0,0 m/s (0 Bft) SW 235 0,00 min 0 lux 15,7 C 16,7 C
19.07.2004 01:40 16,7 C 17,0 C 94 % 1017 hPa 0,0 l/m 0,0 m/s (0 Bft) SW 235 0,00 min 0 lux 15,7 C 16,7 C
19.07.2004 01:45 16,6 C 17,0 C 94 % 1017 hPa 0,0 l/m 0,0 m/s (0 Bft) SW 235 0,00 min 0 lux 15,6 C 16,6 C
19.07.2004 01:50 16,7 C 16,9 C 95 % 1017 hPa 0,0 l/m 0,0 m/s (0 Bft) SW 235 0,00 min 0 lux 15,9 C 16,7 C
19.07.2004 01:55 16,6 C 17,0 C 94 % 1017 hPa 0,0 l/m 0,0 m/s (0 Bft) SW 235 0,00 min 0 lux 15,6 C 16,6 C
19.07.2004 02:00 16,6 C 17,0 C 94 % 1017 hPa 0,0 l/m 0,0 m/s (0 Bft) SW 235 0,00 min 0 lux 15,6 C 16,6 C
19.07.2004 02:05 16,5 C 16,9 C 94 % 1017 hPa 0,0 l/m 0,0 m/s (0 Bft) SW 235 0,00 min 0 lux 15,5 C 16,5 C
19.07.2004 02:10 16,6 C 16,9 C 94 % 1017 hPa 0,0 l/m 0,0 m/s (0 Bft) SW 235 0,00 min 0 lux 15,6 C 16,6 C
19.07.2004 02:15 16,6 C 16,9 C 94 % 1017 hPa 0,0 l/m 0,0 m/s (0 Bft) SW 235 0,00 min 0 lux 15,6 C 16,6 C
19.07.2004 02:20 16,6 C 16,9 C 95 % 1017 hPa 0,0 l/m 0,0 m/s (0 Bft) SW 235 0,00 min 0 lux 15,8 C 16,6 C
19.07.2004 02:25 16,6 C 16,9 C 95 % 1017 hPa 0,0 l/m 0,0 m/s (0 Bft) SW 235 0,00 min 0 lux 15,8 C 16,6 C
19.07.2004 02:30 16,6 C 16,9 C 95 % 1017 hPa 0,0 l/m 0,0 m/s (0 Bft) SW22.5 230 0,00 min 0 lux 15,8 C 16,6 C
19.07.2004 02:35 16,5 C 16,8 C 95 % 1017 hPa 0,0 l/m 0,0 m/s (0 Bft) S-SW 195 0,00 min 0 lux 15,7 C 16,5 C
19.07.2004 02:40 16,4 C 16,8 C 95 % 1017 hPa 0,0 l/m 0,0 m/s (0 Bft) S-SW 195 0,00 min 0 lux 15,6 C 16,4 C
19.07.2004 02:45 16,4 C 16,8 C 95 % 1017 hPa 0,0 l/m 0,0 m/s (0 Bft) S-SW 195 0,00 min 0 lux 15,6 C 16,4 C
19.07.2004 02:50 16,3 C 16,8 C 95 % 1017 hPa 0,0 l/m 0,0 m/s (0 Bft) S-SW 195 0,00 min 0 lux 15,5 C 16,3 C
19.07.2004 02:55 16,3 C 16,7 C 95 % 1017 hPa 0,0 l/m 0,0 m/s (0 Bft) W 275 0,00 min 0 lux 15,5 C 16,3 C
19.07.2004 03:00 16,4 C 16,6 C 95 % 1017 hPa 0,0 l/m 0,0 m/s (0 Bft) W 275 0,00 min 0 lux 15,6 C 16,4 C
19.07.2004 03:05 16,4 C 16,6 C 95 % 1017 hPa 0,0 l/m 0,0 m/s (0 Bft) W 275 0,00 min 0 lux 15,6 C 16,4 C
19.07.2004 03:10 16,2 C 16,6 C 95 % 1017 hPa 0,0 l/m 0,0 m/s (0 Bft) W 275 0,00 min 0 lux 15,4 C 16,2 C
19.07.2004 03:15 16,2 C 16,5 C 95 % 1017 hPa 0,0 l/m 0,0 m/s (0 Bft) W 275 0,00 min 0 lux 15,4 C 16,2 C
19.07.2004 03:20 16,3 C 16,5 C 95 % 1017 hPa 0,0 l/m 0,0 m/s (0 Bft) W-SW22.5 255 0,00 min 0 lux 15,5 C 16,3 C
19.07.2004 03:25 16,4 C 16,5 C 95 % 1017 hPa 0,0 l/m 0,7 m/s (0 Bft) W22.5 260 0,00 min 0 lux 15,6 C 16,4 C
19.07.2004 03:30 16,5 C 16,6 C 95 % 1017 hPa 0,0 l/m 0,2 m/s (0 Bft) SW 230 0,00 min 0 lux 15,7 C 16,5 C
19.07.2004 03:35 16,5 C 16,6 C 95 % 1017 hPa 0,0 l/m 0,0 m/s (0 Bft) SW 230 0,00 min 0 lux 15,7 C 16,5 C
19.07.2004 03:40 16,6 C 16,6 C 95 % 1017 hPa 0,4 l/m 1,5 m/s (1 Bft) W-SW22.5 255 0,00 min 0 lux 15,8 C 16,6 C
19.07.2004 03:45 16,8 C 16,7 C 95 % 1017 hPa 0,0 l/m 2,8 m/s (1 Bft) W-SW22.5 250 0,00 min 0 lux 16,0 C 15,1 C
19.07.2004 03:50 16,7 C 16,7 C 95 % 1017 hPa 0,0 l/m 3,1 m/s (1 Bft) W-SW45 245 0,00 min 0 lux 15,9 C 14,6 C
19.07.2004 03:55 16,7 C 16,8 C 95 % 1017 hPa 0,0 l/m 0,2 m/s (0 Bft) W-SW 240 0,00 min 0 lux 15,9 C 16,7 C
19.07.2004 04:00 16,6 C 16,7 C 95 % 1017 hPa 0,0 l/m 0,0 m/s (0 Bft) W-SW 240 0,00 min 0 lux 15,8 C 16,6 C
19.07.2004 04:05 16,6 C 16,7 C 95 % 1017 hPa 0,0 l/m 0,0 m/s (0 Bft) W-SW 240 0,00 min 0 lux 15,8 C 16,6 C
19.07.2004 04:10 16,5 C 16,7 C 95 % 1017 hPa 0,0 l/m 0,0 m/s (0 Bft) W-SW 240 0,00 min 0 lux 15,7 C 16,5 C
19.07.2004 04:15 16,4 C 16,7 C 95 % 1017 hPa 0,0 l/m 0,0 m/s (0 Bft) W-SW 240 0,00 min 0 lux 15,6 C 16,4 C
19.07.2004 04:20 16,3 C 16,7 C 95 % 1017 hPa 0,0 l/m 0,0 m/s (0 Bft) W-SW 240 0,00 min 0 lux 15,5 C 16,3 C
19.07.2004 04:25 16,3 C 16,6 C 95 % 1017 hPa 0,0 l/m 0,0 m/s (0 Bft) SW 235 0,00 min 0 lux 15,5 C 16,3 C
19.07.2004 04:30 16,4 C 16,6 C 95 % 1017 hPa 0,0 l/m 0,0 m/s (0 Bft) SW 235 0,00 min 0 lux 15,6 C 16,4 C
19.07.2004 04:35 16,5 C 16,6 C 95 % 1017 hPa 0,0 l/m 0,4 m/s (0 Bft) SW 235 0,00 min 0 lux 15,7 C 16,5 C
19.07.2004 04:40 16,5 C 16,6 C 95 % 1017 hPa 0,0 l/m 0,1 m/s (0 Bft) SW 235 0,00 min 0 lux 15,7 C 16,5 C
19.07.2004 04:45 16,4 C 16,6 C 95 % 1017 hPa 0,0 l/m 0,0 m/s (0 Bft) SW 235 0,00 min 0 lux 15,6 C 16,4 C
19.07.2004 04:50 16,4 C 16,6 C 95 % 1017 hPa 0,0 l/m 0,0 m/s (0 Bft) SW 235 0,00 min 0 lux 15,6 C 16,4 C
19.07.2004 04:55 16,4 C 16,6 C 95 % 1017 hPa 0,0 l/m 1,0 m/s (0 Bft) W-SW22.5 240 0,00 min 0 lux 15,6 C 16,4 C
19.07.2004 05:00 16,4 C 16,6 C 95 % 1017 hPa 0,0 l/m 1,3 m/s (1 Bft) W-SW22.5 245 0,00 min 0 lux 15,6 C 16,4 C
19.07.2004 05:05 16,4 C 16,6 C 95 % 1017 hPa 0,0 l/m 0,2 m/s (0 Bft) W22.5 260 0,00 min 0 lux 15,6 C 16,4 C
19.07.2004 05:10 16,3 C 16,6 C 95 % 1017 hPa 0,0 l/m 0,1 m/s (0 Bft) W 260 0,00 min 0 lux 15,5 C 16,3 C
19.07.2004 05:15 16,1 C 16,6 C 95 % 1017 hPa 0,0 l/m 2,0 m/s (1 Bft) W22.5 260 0,00 min 0 lux 15,3 C 15,7 C
19.07.2004 05:20 16,2 C 16,6 C 95 % 1017 hPa 0,0 l/m 2,7 m/s (1 Bft) W 260 0,00 min 38 lux 15,4 C 14,5 C
19.07.2004 05:25 16,1 C 16,6 C 95 % 1017 hPa 0,0 l/m 1,8 m/s (1 Bft) W-SW 245 0,00 min 85 lux 15,3 C 16,1 C
19.07.2004 05:30 16,0 C 16,5 C 94 % 1017 hPa 0,0 l/m 2,2 m/s (1 Bft) W-SW 245 0,00 min 163 lux 15,0 C 15,2 C
19.07.2004 05:35 16,0 C 16,4 C 94 % 1017 hPa 0,0 l/m 2,6 m/s (1 Bft) W-SW 250 0,00 min 262 lux 15,0 C 14,5 C
19.07.2004 05:40 15,9 C 16,4 C 94 % 1017 hPa 0,0 l/m 2,2 m/s (1 Bft) W22.5 275 0,00 min 391 lux 14,9 C 15,1 C
19.07.2004 05:45 16,0 C 16,3 C 93 % 1017 hPa 0,0 l/m 2,1 m/s (1 Bft) W 260 0,00 min 554 lux 14,9 C 15,4 C
19.07.2004 05:50 16,0 C 16,3 C 93 % 1017 hPa 0,0 l/m 2,1 m/s (1 Bft) W22.5 260 0,00 min 606 lux 14,9 C 15,4 C
19.07.2004 05:55 16,0 C 16,2 C 93 % 1017 hPa 0,0 l/m 2,8 m/s (1 Bft) W-SW22.5 250 0,00 min 801 lux 14,9 C 14,1 C
19.07.2004 06:00 15,9 C 16,1 C 93 % 1017 hPa 0,0 l/m 2,0 m/s (1 Bft) W-SW22.5 255 0,00 min 1,29 klux 14,8 C 15,4 C
19.07.2004 06:05 15,9 C 16,1 C 93 % 1017 hPa 0,0 l/m 0,5 m/s (0 Bft) W 265 0,00 min 1,88 klux 14,8 C 15,9 C
19.07.2004 06:10 15,9 C 16,0 C 92 % 1017 hPa 0,0 l/m 0,0 m/s (0 Bft) W-SW 255 0,00 min 2,01 klux 14,6 C 15,9 C
19.07.2004 06:15 15,8 C 16,0 C 92 % 1018 hPa 0,0 l/m 0,9 m/s (0 Bft) W-SW 245 0,00 min 2,83 klux 14,5 C 15,8 C
19.07.2004 06:20 15,8 C 15,9 C 93 % 1018 hPa 0,0 l/m 1,8 m/s (1 Bft) W-SW 255 0,00 min 3,05 klux 14,7 C 15,8 C
19.07.2004 06:25 15,8 C 16,0 C 93 % 1018 hPa 0,0 l/m 2,1 m/s (1 Bft) W22.5 265 0,00 min 3,32 klux 14,7 C 15,2 C
19.07.2004 06:30 15,9 C 15,9 C 93 % 1018 hPa 0,0 l/m 3,4 m/s (1 Bft) W22.5 260 0,00 min 4,77 klux 14,8 C 13,2 C
19.07.2004 06:35 15,9 C 15,9 C 93 % 1018 hPa 0,0 l/m 2,1 m/s (1 Bft) W-SW22.5 250 0,00 min 6,50 klux 14,8 C 15,3 C
19.07.2004 06:40 15,9 C 15,9 C 93 % 1018 hPa 0,0 l/m 2,5 m/s (1 Bft) W 265 0,00 min 7,16 klux 14,8 C 14,6 C
19.07.2004 06:45 16,0 C 16,0 C 92 % 1018 hPa 0,0 l/m 2,5 m/s (1 Bft) W-SW 255 0,00 min 7,39 klux 14,7 C 14,7 C
19.07.2004 06:50 16,4 C 15,9 C 92 % 1018 hPa 0,0 l/m 0,5 m/s (0 Bft) W 260 0,00 min 9,4 klux 15,1 C 16,4 C
19.07.2004 06:55 16,6 C 15,9 C 90 % 1018 hPa 0,0 l/m 0,8 m/s (0 Bft) W 260 0,00 min 11,0 klux 15,0 C 16,6 C
19.07.2004 07:00 16,4 C 15,9 C 89 % 1018 hPa 0,0 l/m 0,2 m/s (0 Bft) W 260 0,00 min 8,70 klux 14,6 C 16,4 C
19.07.2004 07:05 17,1 C 15,9 C 87 % 1018 hPa 0,0 l/m 1,5 m/s (1 Bft) W-SW 250 5,00 min 21,0 klux 14,9 C 17,1 C
19.07.2004 07:10 16,9 C 15,9 C 86 % 1018 hPa 0,0 l/m 1,4 m/s (1 Bft) W-SW 245 5,00 min 19,8 klux 14,5 C 16,9 C
19.07.2004 07:15 16,8 C 16,0 C 84 % 1018 hPa 0,0 l/m 1,7 m/s (1 Bft) SW 230 0,00 min 14,9 klux 14,1 C 16,8 C
19.07.2004 07:20 17,0 C 16,1 C 85 % 1018 hPa 0,0 l/m 1,6 m/s (1 Bft) W-SW22.5 240 5,00 min 22,1 klux 14,5 C 17,0 C
19.07.2004 07:25 17,5 C 16,3 C 84 % 1018 hPa 0,0 l/m 2,2 m/s (1 Bft) W-SW22.5 240 5,00 min 25,6 klux 14,8 C 16,8 C
19.07.2004 07:30 17,4 C 16,4 C 83 % 1018 hPa 0,0 l/m 1,8 m/s (1 Bft) W-SW22.5 240 0,00 min 18,6 klux 14,5 C 17,4 C
19.07.2004 07:35 17,1 C 16,5 C 84 % 1018 hPa 0,0 l/m 1,8 m/s (1 Bft) SW22.5 225 0,00 min 13,3 klux 14,4 C 17,1 C
19.07.2004 07:40 17,0 C 16,6 C 85 % 1018 hPa 0,0 l/m 1,3 m/s (1 Bft) W-SW 240 0,00 min 12,6 klux 14,5 C 17,0 C
19.07.2004 07:45 17,0 C 16,7 C 86 % 1018 hPa 0,0 l/m 1,1 m/s (1 Bft) W-SW 240 0,00 min 14,9 klux 14,6 C 17,0 C
19.07.2004 07:50 17,0 C 16,8 C 86 % 1018 hPa 0,0 l/m 1,5 m/s (1 Bft) W-SW 240 0,00 min 14,7 klux 14,6 C 17,0 C
19.07.2004 07:55 17,1 C 16,8 C 86 % 1018 hPa 0,0 l/m 0,3 m/s (0 Bft) W-SW 245 0,00 min 14,0 klux 14,7 C 17,1 C
19.07.2004 08:00 17,0 C 16,9 C 85 % 1018 hPa 0,0 l/m 0,2 m/s (0 Bft) W-SW 245 0,00 min 11,4 klux 14,5 C 17,0 C
19.07.2004 08:05 17,0 C 16,9 C 85 % 1018 hPa 0,0 l/m 1,9 m/s (1 Bft) W 260 0,00 min 16,3 klux 14,5 C 16,8 C
19.07.2004 08:10 17,7 C 16,9 C 83 % 1018 hPa 0,0 l/m 1,9 m/s (1 Bft) W-SW22.5 255 5,00 min 44,2 klux 14,8 C 17,4 C
19.07.2004 08:15 18,9 C 17,1 C 78 % 1018 hPa 0,0 l/m 2,6 m/s (1 Bft) W22.5 275 5,00 min 47,8 klux 15,0 C 17,7 C
19.07.2004 08:20 20,0 C 17,3 C 66 % 1018 hPa 0,0 l/m 1,3 m/s (1 Bft) W22.5 265 5,00 min 46,9 klux 13,4 C 20,0 C
19.07.2004 08:25 18,1 C 17,6 C 73 % 1018 hPa 0,0 l/m 3,4 m/s (1 Bft) W-SW45 245 0,00 min 19,3 klux 13,2 C 15,8 C
19.07.2004 08:30 17,8 C 17,6 C 77 % 1018 hPa 0,0 l/m 3,9 m/s (1 Bft) W-SW22.5 255 0,00 min 22,7 klux 13,7 C 14,9 C
19.07.2004 08:35 17,9 C 17,8 C 78 % 1018 hPa 0,0 l/m 3,0 m/s (1 Bft) W-SW22.5 245 0,00 min 24,8 klux 14,0 C 16,1 C
19.07.2004 08:40 18,2 C 17,9 C 78 % 1018 hPa 0,0 l/m 2,8 m/s (1 Bft) W-SW22.5 245 0,00 min 29,3 klux 14,3 C 16,7 C
19.07.2004 08:45 18,2 C 17,9 C 77 % 1019 hPa 0,0 l/m 2,5 m/s (1 Bft) W45 270 0,00 min 21,6 klux 14,1 C 17,0 C
19.07.2004 08:50 17,9 C 17,9 C 78 % 1018 hPa 0,0 l/m 3,2 m/s (1 Bft) W45 260 0,00 min 24,9 klux 14,0 C 15,7 C
19.07.2004 08:55 18,4 C 17,9 C 77 % 1019 hPa 0,0 l/m 1,5 m/s (1 Bft) W-SW22.5 255 5,00 min 54,3 klux 14,3 C 18,4 C
19.07.2004 09:00 18,7 C 17,9 C 75 % 1019 hPa 0,0 l/m 1,3 m/s (1 Bft) W-SW22.5 255 5,00 min 54,9 klux 14,2 C 18,7 C
19.07.2004 09:05 18,6 C 18,0 C 74 % 1019 hPa 0,0 l/m 2,2 m/s (1 Bft) W22.5 270 5,00 min 56,9 klux 13,9 C 18,0 C
19.07.2004 09:10 18,6 C 17,9 C 75 % 1019 hPa 0,0 l/m 2,8 m/s (1 Bft) W22.5 275 5,00 min 52,3 klux 14,1 C 17,1 C
19.07.2004 09:15 18,8 C 17,9 C 74 % 1019 hPa 0,0 l/m 0,9 m/s (0 Bft) W-SW22.5 255 5,00 min 62,1 klux 14,1 C 18,8 C
19.07.2004 09:20 18,8 C 18,0 C 74 % 1019 hPa 0,0 l/m 1,8 m/s (1 Bft) SW45 230 5,00 min 65,8 klux 14,1 C 18,7 C
19.07.2004 09:25 18,8 C 18,4 C 73 % 1019 hPa 0,0 l/m 3,5 m/s (1 Bft) W-SW22.5 255 0,00 min 35,8 klux 13,9 C 16,5 C
19.07.2004 09:30 18,9 C 18,4 C 73 % 1019 hPa 0,0 l/m 2,5 m/s (1 Bft) W22.5 260 0,00 min 39,6 klux 13,9 C 17,8 C
19.07.2004 09:35 19,0 C 18,4 C 72 % 1019 hPa 0,0 l/m 3,4 m/s (1 Bft) W22.5 275 5,00 min 66,0 klux 13,8 C 16,8 C
19.07.2004 09:40 18,9 C 18,4 C 72 % 1019 hPa 0,0 l/m 4,9 m/s (1 Bft) W45 280 5,00 min 68,5 klux 13,7 C 15,3 C
19.07.2004 09:45 19,0 C 18,4 C 70 % 1019 hPa 0,0 l/m 4,3 m/s (1 Bft) W-NW22.5 295 5,00 min 71,4 klux 13,4 C 15,9 C
19.07.2004 09:50 19,1 C 18,5 C 72 % 1019 hPa 0,0 l/m 2,3 m/s (1 Bft) W45 270 5,00 min 73,3 klux 13,9 C 18,3 C
19.07.2004 09:55 19,3 C 18,6 C 70 % 1019 hPa 0,0 l/m 5,3 m/s (1 Bft) W-SW45 250 5,00 min 56,6 klux 13,7 C 15,5 C
19.07.2004 10:00 19,3 C 18,9 C 70 % 1019 hPa 0,0 l/m 4,7 m/s (1 Bft) W-SW45 255 5,00 min 76,0 klux 13,7 C 16,0 C
19.07.2004 10:05 19,4 C 19,5 C 69 % 1019 hPa 0,0 l/m 3,7 m/s (1 Bft) W-SW45 245 5,00 min 83,2 klux 13,6 C 17,0 C
19.07.2004 10:10 18,8 C 19,5 C 69 % 1019 hPa 0,0 l/m 5,0 m/s (1 Bft) W22.5 260 0,00 min 43,2 klux 13,0 C 15,1 C
19.07.2004 10:15 19,1 C 19,7 C 68 % 1019 hPa 0,0 l/m 5,8 m/s (2 Bft) W45 270 5,00 min 80,8 klux 13,1 C 14,9 C
19.07.2004 10:20 19,3 C 20,4 C 66 % 1019 hPa 0,0 l/m 4,8 m/s (1 Bft) W-SW45 250 5,00 min 80,0 klux 12,8 C 15,8 C
19.07.2004 10:25 19,2 C 20,8 C 64 % 1019 hPa 0,0 l/m 4,4 m/s (1 Bft) W-SW22.5 255 5,00 min 79,7 klux 12,2 C 16,1 C
19.07.2004 10:30 19,4 C 21,5 C 64 % 1019 hPa 0,0 l/m 3,3 m/s (1 Bft) W-SW22.5 250 5,00 min 78,4 klux 12,4 C 17,4 C
19.07.2004 10:35 19,6 C 22,2 C 62 % 1019 hPa 0,0 l/m 4,9 m/s (1 Bft) W-SW67.5 245 5,00 min 77,7 klux 12,1 C 16,2 C
19.07.2004 10:40 19,2 C 22,7 C 61 % 1019 hPa 0,0 l/m 4,3 m/s (1 Bft) W-SW45 255 5,00 min 79,2 klux 11,5 C 16,1 C
19.07.2004 10:45 19,7 C 22,7 C 63 % 1019 hPa 0,0 l/m 3,2 m/s (1 Bft) W45 260 5,00 min 83,5 klux 12,5 C 17,8 C
19.07.2004 10:50 19,7 C 23,0 C 61 % 1019 hPa 0,0 l/m 6,7 m/s (2 Bft) W45 280 5,00 min 87,2 klux 12,0 C 15,1 C
19.07.2004 10:55 20,2 C 23,6 C 60 % 1019 hPa 0,0 l/m 3,1 m/s (1 Bft) W-SW22.5 255 5,00 min 83,5 klux 12,2 C 18,5 C
19.07.2004 11:00 19,8 C 23,8 C 58 % 1019 hPa 0,0 l/m 4,8 m/s (1 Bft) W-SW22.5 245 5,00 min 85,0 klux 11,3 C 16,5 C
19.07.2004 11:05 20,0 C 24,2 C 58 % 1019 hPa 0,0 l/m 4,2 m/s (1 Bft) W-SW22.5 245 5,00 min 84,3 klux 11,5 C 17,2 C
19.07.2004 11:10 20,0 C 24,3 C 57 % 1019 hPa 0,0 l/m 4,0 m/s (1 Bft) W45 260 5,00 min 84,8 klux 11,2 C 17,4 C
19.07.2004 11:15 20,0 C 24,4 C 57 % 1019 hPa 0,0 l/m 5,6 m/s (1 Bft) W45 265 5,00 min 83,5 klux 11,2 C 16,2 C
19.07.2004 11:20 20,3 C 24,5 C 57 % 1019 hPa 0,0 l/m 6,1 m/s (2 Bft) W45 270 5,00 min 86,6 klux 11,5 C 16,3 C
19.07.2004 11:25 20,8 C 25,0 C 57 % 1019 hPa 0,0 l/m 4,3 m/s (1 Bft) W67.5 275 5,00 min 87,3 klux 12,0 C 18,2 C
19.07.2004 11:30 20,6 C 25,3 C 54 % 1019 hPa 0,0 l/m 4,8 m/s (1 Bft) W-SW45 250 5,00 min 88,5 klux 11,0 C 17,5 C
19.07.2004 11:35 20,6 C 25,3 C 54 % 1019 hPa 0,0 l/m 4,0 m/s (1 Bft) SW45 235 5,00 min 88,7 klux 11,0 C 18,1 C
19.07.2004 11:40 20,7 C 25,7 C 52 % 1019 hPa 0,0 l/m 3,6 m/s (1 Bft) W-SW22.5 255 5,00 min 78,9 klux 10,5 C 18,6 C
19.07.2004 11:45 20,9 C 25,8 C 49 % 1019 hPa 0,0 l/m 4,1 m/s (1 Bft) W-SW67.5 240 5,00 min 88,9 klux 9,8 C 18,4 C
19.07.2004 11:50 21,2 C 25,9 C 52 % 1019 hPa 0,0 l/m 4,9 m/s (1 Bft) W-SW67.5 240 5,00 min 90,8 klux 10,9 C 18,2 C
19.07.2004 11:55 21,4 C 26,1 C 51 % 1019 hPa 0,0 l/m 4,6 m/s (1 Bft) W-NW45 295 5,00 min 89,5 klux 10,8 C 18,6 C
19.07.2004 12:00 21,4 C 26,5 C 47 % 1019 hPa 0,0 l/m 4,3 m/s (1 Bft) W-SW45 240 5,00 min 89,8 klux 9,6 C 18,9 C
19.07.2004 12:05 21,3 C 26,7 C 48 % 1019 hPa 0,0 l/m 3,1 m/s (1 Bft) W-SW22.5 240 5,00 min 92,0 klux 9,8 C 19,7 C
19.07.2004 12:10 21,6 C 26,9 C 47 % 1019 hPa 0,0 l/m 3,6 m/s (1 Bft) W-SW45 245 5,00 min 98,0 klux 9,8 C 19,6 C
19.07.2004 12:15 21,6 C 27,0 C 48 % 1019 hPa 0,0 l/m 3,7 m/s (1 Bft) W-SW22.5 250 5,00 min 78,3 klux 10,1 C 19,5 C
19.07.2004 12:25 21,8 C 27,1 C 46 % 1019 hPa 0,0 l/m 3,2 m/s (1 Bft) SW45 235 10,00 min 95,1 klux 9,7 C 20,2 C
19.07.2004 12:30 22,0 C 27,2 C 47 % 1019 hPa 0,4 l/m 4,8 m/s (1 Bft) W45 265 5,00 min 95,9 klux 10,2 C 19,2 C
19.07.2004 12:35 22,1 C 27,5 C 46 % 1019 hPa 0,0 l/m 3,1 m/s (1 Bft) W-SW45 255 5,00 min 95,9 klux 9,9 C 20,7 C
19.07.2004 12:40 22,6 C 28,0 C 44 % 1019 hPa 0,0 l/m 2,6 m/s (1 Bft) S67.5 185 5,00 min 98,4 klux 9,7 C 21,7 C
19.07.2004 12:45 22,2 C 27,9 C 41 % 1019 hPa 0,0 l/m 5,4 m/s (1 Bft) W-SW67.5 245 5,00 min 94,0 klux 8,3 C 19,1 C
19.07.2004 12:50 22,5 C 27,9 C 46 % 1019 hPa 0,0 l/m 3,5 m/s (1 Bft) W45 265 5,00 min 73,7 klux 10,3 C 20,8 C
19.07.2004 12:55 22,4 C 27,9 C 41 % 1019 hPa 0,0 l/m 6,0 m/s (2 Bft) W-SW45 245 5,00 min 73,7 klux 8,5 C 19,1 C
19.07.2004 13:00 22,4 C 28,0 C 41 % 1019 hPa 0,0 l/m 5,8 m/s (2 Bft) W45 270 5,00 min 88,4 klux 8,5 C 19,2 C
19.07.2004 13:05 22,3 C 28,0 C 40 % 1019 hPa 0,0 l/m 3,9 m/s (1 Bft) W-SW45 245 5,00 min 83,1 klux 8,0 C 20,3 C
19.07.2004 13:10 22,1 C 28,1 C 41 % 1019 hPa 0,0 l/m 4,3 m/s (1 Bft) W-SW45 250 5,00 min 90,6 klux 8,2 C 19,7 C
19.07.2004 13:15 22,7 C 28,1 C 39 % 1019 hPa 0,0 l/m 4,4 m/s (1 Bft) W-SW45 255 5,00 min 99,0 klux 8,0 C 20,4 C
19.07.2004 13:20 22,8 C 28,7 C 40 % 1019 hPa 0,0 l/m 0,5 m/s (0 Bft) S67.5 170 5,00 min 93,7 klux 8,5 C 22,8 C
19.07.2004 13:25 22,8 C 28,7 C 41 % 1019 hPa 0,0 l/m 4,7 m/s (1 Bft) W-SW22.5 250 5,00 min 90,2 klux 8,9 C 20,3 C
19.07.2004 13:30 22,8 C 28,7 C 41 % 1019 hPa 0,0 l/m 5,1 m/s (1 Bft) W45 265 5,00 min 92,3 klux 8,9 C 20,0 C
19.07.2004 13:35 23,2 C 28,7 C 42 % 1019 hPa 0,0 l/m 3,9 m/s (1 Bft) W45 275 5,00 min 98,3 klux 9,6 C 21,3 C
19.07.2004 13:40 22,8 C 28,9 C 37 % 1019 hPa 0,0 l/m 3,8 m/s (1 Bft) W-NW45 285 5,00 min 87,2 klux 7,3 C 20,9 C
19.07.2004 13:45 22,9 C 29,0 C 41 % 1019 hPa 0,0 l/m 4,9 m/s (1 Bft) W45 265 5,00 min 79,4 klux 8,9 C 20,3 C
19.07.2004 13:50 23,5 C 28,7 C 41 % 1019 hPa 0,0 l/m 4,1 m/s (1 Bft) W-NW45 285 5,00 min 94,6 klux 9,5 C 21,5 C
19.07.2004 13:55 23,2 C 28,9 C 39 % 1019 hPa 0,0 l/m 4,8 m/s (1 Bft) W45 260 5,00 min 100 klux 8,5 C 20,7 C
19.07.2004 14:00 23,3 C 29,0 C 39 % 1019 hPa 0,0 l/m 5,4 m/s (1 Bft) W45 275 5,00 min 87,6 klux 8,6 C 20,6 C
19.07.2004 14:05 23,4 C 28,9 C 39 % 1019 hPa 0,0 l/m 5,0 m/s (1 Bft) W22.5 260 5,00 min 89,1 klux 8,6 C 20,9 C
19.07.2004 14:10 23,3 C 29,0 C 39 % 1019 hPa 0,0 l/m 4,7 m/s (1 Bft) W22.5 260 5,00 min 90,1 klux 8,6 C 20,9 C
19.07.2004 14:15 23,3 C 29,2 C 39 % 1019 hPa 0,0 l/m 4,6 m/s (1 Bft) W22.5 260 5,00 min 87,2 klux 8,6 C 21,0 C
19.07.2004 14:20 23,6 C 29,3 C 42 % 1019 hPa 0,0 l/m 3,6 m/s (1 Bft) W-NW45 295 5,00 min 94,6 klux 9,9 C 22,0 C
19.07.2004 14:25 23,4 C 29,5 C 37 % 1019 hPa 0,0 l/m 4,2 m/s (1 Bft) W-NW67.5 285 5,00 min 102 klux 7,9 C 21,3 C
19.07.2004 14:30 23,2 C 29,5 C 35 % 1019 hPa 0,0 l/m 7,0 m/s (2 Bft) W-SW45 250 5,00 min 98,1 klux 6,9 C 19,7 C
19.07.2004 14:35 23,7 C 30,1 C 36 % 1019 hPa 0,0 l/m 5,5 m/s (1 Bft) W22.5 260 5,00 min 93,8 klux 7,7 C 21,0 C
19.07.2004 14:40 23,7 C 30,4 C 35 % 1019 hPa 0,0 l/m 3,3 m/s (1 Bft) W22.5 265 5,00 min 97,9 klux 7,3 C 22,3 C
19.07.2004 14:45 24,1 C 30,6 C 35 % 1019 hPa 0,0 l/m 5,9 m/s (2 Bft) W-SW45 240 5,00 min 90,8 klux 7,7 C 21,4 C
19.07.2004 14:50 23,7 C 30,3 C 33 % 1019 hPa 0,0 l/m 5,4 m/s (1 Bft) W-SW67.5 255 5,00 min 94,5 klux 6,5 C 21,1 C
19.07.2004 14:55 23,7 C 30,6 C 34 % 1019 hPa 0,0 l/m 4,0 m/s (1 Bft) W67.5 260 5,00 min 88,1 klux 6,9 C 21,8 C
19.07.2004 15:00 24,0 C 30,9 C 35 % 1019 hPa 0,0 l/m 3,0 m/s (1 Bft) SW67.5 235 5,00 min 90,2 klux 7,6 C 22,9 C
19.07.2004 15:05 24,1 C 30,8 C 34 % 1019 hPa 0,0 l/m 3,4 m/s (1 Bft) W45 265 5,00 min 77,9 klux 7,2 C 22,7 C
19.07.2004 15:10 23,9 C 30,9 C 34 % 1019 hPa 0,0 l/m 3,3 m/s (1 Bft) W-SW45 255 5,00 min 83,7 klux 7,1 C 22,6 C
19.07.2004 15:15 24,7 C 30,7 C 35 % 1019 hPa 0,0 l/m 3,0 m/s (1 Bft) W-NW67.5 295 5,00 min 79,2 klux 8,2 C 23,7 C
19.07.2004 15:20 24,1 C 30,6 C 34 % 1019 hPa 0,0 l/m 3,9 m/s (1 Bft) W45 260 5,00 min 89,7 klux 7,2 C 22,4 C
19.07.2004 15:25 24,7 C 30,8 C 36 % 1019 hPa 0,0 l/m 3,0 m/s (1 Bft) NW45 305 5,00 min 90,6 klux 8,6 C 23,6 C
19.07.2004 15:30 24,6 C 31,2 C 34 % 1019 hPa 0,0 l/m 2,2 m/s (1 Bft) O45 90 5,00 min 88,3 klux 7,7 C 24,2 C
19.07.2004 15:35 24,5 C 31,9 C 35 % 1019 hPa 0,0 l/m 3,1 m/s (1 Bft) W-SW22.5 255 5,00 min 90,2 klux 8,0 C 23,4 C
19.07.2004 15:40 24,5 C 31,7 C 34 % 1019 hPa 0,0 l/m 3,4 m/s (1 Bft) W45 270 5,00 min 86,7 klux 7,6 C 23,1 C
19.07.2004 15:45 24,1 C 31,7 C 33 % 1019 hPa 0,0 l/m 3,4 m/s (1 Bft) W67.5 280 5,00 min 83,0 klux 6,8 C 22,7 C
19.07.2004 15:50 24,2 C 31,5 C 33 % 1019 hPa 0,0 l/m 3,4 m/s (1 Bft) W22.5 265 5,00 min 85,2 klux 6,9 C 22,8 C
19.07.2004 15:55 24,1 C 31,6 C 32 % 1019 hPa 0,0 l/m 4,3 m/s (1 Bft) NW67.5 305 5,00 min 81,0 klux 6,4 C 22,2 C
19.07.2004 16:00 24,1 C 31,4 C 34 % 1019 hPa 0,0 l/m 3,3 m/s (1 Bft) W-SW45 250 5,00 min 72,6 klux 7,2 C 22,8 C
19.07.2004 16:05 24,7 C 31,2 C 33 % 1019 hPa 0,0 l/m 2,7 m/s (1 Bft) W45 270 5,00 min 84,3 klux 7,3 C 23,9 C
19.07.2004 16:10 24,8 C 31,6 C 30 % 1019 hPa 0,0 l/m 2,9 m/s (1 Bft) W-SW22.5 245 5,00 min 89,0 klux 6,0 C 23,8 C
19.07.2004 16:15 24,7 C 31,8 C 33 % 1018 hPa 0,0 l/m 3,1 m/s (1 Bft) W45 260 5,00 min 80,5 klux 7,3 C 23,6 C
19.07.2004 16:20 24,4 C 31,8 C 32 % 1018 hPa 0,0 l/m 4,4 m/s (1 Bft) W-SW45 250 5,00 min 71,8 klux 6,6 C 22,5 C
19.07.2004 16:25 24,6 C 31,7 C 33 % 1018 hPa 0,0 l/m 2,8 m/s (1 Bft) W-SW45 250 5,00 min 66,8 klux 7,2 C 23,7 C
19.07.2004 16:30 24,4 C 31,5 C 33 % 1018 hPa 0,0 l/m 3,4 m/s (1 Bft) W-NW45 285 5,00 min 66,6 klux 7,1 C 23,1 C
19.07.2004 16:35 24,5 C 31,2 C 32 % 1018 hPa 0,0 l/m 4,6 m/s (1 Bft) W22.5 270 5,00 min 63,6 klux 6,7 C 22,4 C
19.07.2004 16:40 24,7 C 30,9 C 32 % 1018 hPa 0,0 l/m 2,9 m/s (1 Bft) W67.5 275 5,00 min 62,3 klux 6,9 C 23,7 C
19.07.2004 16:45 24,3 C 30,3 C 31 % 1018 hPa 0,0 l/m 2,8 m/s (1 Bft) W67.5 260 5,00 min 58,3 klux 6,1 C 23,3 C
19.07.2004 16:50 24,4 C 30,0 C 33 % 1018 hPa 0,0 l/m 4,4 m/s (1 Bft) W-NW67.5 285 5,00 min 60,1 klux 7,1 C 22,4 C
19.07.2004 16:55 24,9 C 29,8 C 32 % 1018 hPa 0,0 l/m 2,7 m/s (1 Bft) W22.5 280 5,00 min 52,7 klux 7,1 C 24,1 C
19.07.2004 17:00 24,8 C 29,8 C 32 % 1018 hPa 0,0 l/m 3,2 m/s (1 Bft) W45 260 5,00 min 62,2 klux 7,0 C 23,7 C
19.07.2004 17:05 24,5 C 29,8 C 31 % 1018 hPa 0,0 l/m 3,0 m/s (1 Bft) W67.5 275 5,00 min 52,3 klux 6,3 C 23,4 C
19.07.2004 17:10 24,1 C 29,7 C 31 % 1018 hPa 0,0 l/m 3,8 m/s (1 Bft) W-SW22.5 250 5,00 min 54,9 klux 5,9 C 22,5 C
19.07.2004 17:15 24,4 C 29,7 C 32 % 1018 hPa 0,0 l/m 2,2 m/s (1 Bft) W-SW67.5 255 5,00 min 54,3 klux 6,6 C 24,0 C
19.07.2004 17:20 24,1 C 29,5 C 32 % 1018 hPa 0,0 l/m 3,8 m/s (1 Bft) W45 270 5,00 min 51,5 klux 6,4 C 22,5 C
19.07.2004 17:25 24,2 C 29,4 C 31 % 1018 hPa 0,0 l/m 2,1 m/s (1 Bft) W-SW45 245 5,00 min 49,4 klux 6,0 C 23,9 C
19.07.2004 17:30 24,5 C 29,3 C 32 % 1018 hPa 0,0 l/m 0,3 m/s (0 Bft) W-SW22.5 245 5,00 min 48,0 klux 6,7 C 24,5 C
19.07.2004 17:35 24,5 C 29,3 C 35 % 1018 hPa 0,0 l/m 0,0 m/s (0 Bft) W67.5 280 5,00 min 48,6 klux 8,0 C 24,5 C
19.07.2004 17:40 24,6 C 29,2 C 33 % 1018 hPa 0,0 l/m 2,9 m/s (1 Bft) W67.5 270 5,00 min 54,4 klux 7,2 C 23,6 C
19.07.2004 17:45 24,6 C 29,3 C 34 % 1018 hPa 0,0 l/m 3,4 m/s (1 Bft) W45 270 5,00 min 55,1 klux 7,7 C 23,3 C
19.07.2004 17:50 24,6 C 29,2 C 34 % 1018 hPa 0,0 l/m 2,9 m/s (1 Bft) W-NW45 290 5,00 min 52,0 klux 7,7 C 23,6 C
19.07.2004 17:55 24,6 C 29,5 C 36 % 1018 hPa 0,0 l/m 0,0 m/s (0 Bft) W-SW 245 5,00 min 54,3 klux 8,5 C 24,6 C
19.07.2004 18:00 24,7 C 29,7 C 36 % 1018 hPa 0,0 l/m 0,0 m/s (0 Bft) O 95 5,00 min 51,3 klux 8,6 C 24,7 C
19.07.2004 18:05 24,2 C 29,6 C 38 % 1018 hPa 0,0 l/m 0,4 m/s (0 Bft) W-SW45 250 5,00 min 49,8 klux 9,0 C 24,2 C
19.07.2004 18:10 24,4 C 29,5 C 37 % 1018 hPa 0,0 l/m 1,9 m/s (1 Bft) W-NW45 295 5,00 min 54,1 klux 8,8 C 24,3 C
19.07.2004 18:15 24,5 C 29,7 C 37 % 1018 hPa 0,0 l/m 1,8 m/s (1 Bft) W45 265 5,00 min 52,1 klux 8,8 C 24,5 C
19.07.2004 18:20 24,1 C 29,9 C 36 % 1018 hPa 0,0 l/m 2,5 m/s (1 Bft) W-NW22.5 290 5,00 min 54,1 klux 8,1 C 23,4 C
19.07.2004 18:25 24,2 C 30,2 C 36 % 1018 hPa 0,0 l/m 3,1 m/s (1 Bft) W45 270 5,00 min 55,8 klux 8,2 C 23,1 C
19.07.2004 18:30 24,3 C 30,3 C 36 % 1018 hPa 0,0 l/m 3,5 m/s (1 Bft) W45 275 5,00 min 53,5 klux 8,3 C 22,9 C
19.07.2004 18:35 24,2 C 30,4 C 35 % 1018 hPa 0,0 l/m 2,9 m/s (1 Bft) W-NW67.5 300 5,00 min 50,2 klux 7,8 C 23,2 C
19.07.2004 18:40 23,8 C 30,4 C 38 % 1018 hPa 0,0 l/m 2,5 m/s (1 Bft) W45 275 5,00 min 42,4 klux 8,6 C 23,1 C
19.07.2004 18:45 24,1 C 30,6 C 35 % 1018 hPa 0,0 l/m 0,1 m/s (0 Bft) W45 260 5,00 min 35,8 klux 7,7 C 24,1 C
19.07.2004 18:50 24,0 C 30,6 C 37 % 1018 hPa 0,0 l/m 0,0 m/s (0 Bft) O-NO45 75 5,00 min 43,7 klux 8,4 C 24,0 C
19.07.2004 18:55 24,1 C 30,6 C 35 % 1018 hPa 0,0 l/m 0,0 m/s (0 Bft) O22.5 85 5,00 min 44,5 klux 7,7 C 24,1 C
19.07.2004 19:00 24,0 C 30,9 C 35 % 1018 hPa 0,0 l/m 0,0 m/s (0 Bft) O-NO 70 5,00 min 38,0 klux 7,6 C 24,0 C
19.07.2004 19:05 25,1 C 30,8 C 34 % 1018 hPa 0,0 l/m 0,0 m/s (0 Bft) O 100 5,00 min 41,0 klux 8,1 C 25,1 C
19.07.2004 19:10 25,4 C 30,6 C 33 % 1018 hPa 0,0 l/m 0,0 m/s (0 Bft) O 100 5,00 min 27,0 klux 7,9 C 25,4 C
19.07.2004 19:15 25,4 C 30,1 C 32 % 1018 hPa 0,0 l/m 0,0 m/s (0 Bft) O 95 5,00 min 36,1 klux 7,5 C 25,4 C
19.07.2004 19:20 24,5 C 29,4 C 35 % 1018 hPa 0,0 l/m 0,0 m/s (0 Bft) O-SO67.5 110 5,00 min 25,8 klux 8,0 C 24,5 C
19.07.2004 19:25 24,6 C 28,7 C 35 % 1018 hPa 0,0 l/m 0,0 m/s (0 Bft) S-SW 195 0,00 min 21,1 klux 8,1 C 24,6 C
19.07.2004 19:30 24,6 C 28,3 C 35 % 1018 hPa 0,0 l/m 0,0 m/s (0 Bft) W 260 0,00 min 16,6 klux 8,1 C 24,6 C
19.07.2004 19:35 23,8 C 27,6 C 38 % 1018 hPa 0,0 l/m 0,0 m/s (0 Bft) W 260 5,00 min 21,3 klux 8,6 C 23,8 C
19.07.2004 19:40 24,1 C 27,2 C 37 % 1018 hPa 0,0 l/m 0,0 m/s (0 Bft) W 260 0,00 min 20,0 klux 8,5 C 24,1 C
19.07.2004 19:45 24,0 C 26,9 C 37 % 1018 hPa 0,0 l/m 0,0 m/s (0 Bft) W 260 0,00 min 15,8 klux 8,4 C 24,0 C
19.07.2004 19:50 23,5 C 26,4 C 40 % 1018 hPa 0,0 l/m 0,0 m/s (0 Bft) W 260 0,00 min 12,3 klux 9,1 C 23,5 C
19.07.2004 19:55 22,8 C 25,9 C 43 % 1018 hPa 0,0 l/m 0,0 m/s (0 Bft) W-SW 255 0,00 min 11,8 klux 9,6 C 22,8 C
19.07.2004 20:00 23,0 C 25,7 C 44 % 1018 hPa 0,0 l/m 0,0 m/s (0 Bft) W 260 5,00 min 22,0 klux 10,1 C 23,0 C
19.07.2004 20:05 22,7 C 25,4 C 45 % 1018 hPa 0,0 l/m 0,0 m/s (0 Bft) W 260 0,00 min 13,3 klux 10,1 C 22,7 C
19.07.2004 20:10 22,1 C 24,8 C 47 % 1018 hPa 0,0 l/m 0,0 m/s (0 Bft) W 260 0,00 min 11,0 klux 10,3 C 22,1 C
19.07.2004 20:15 21,8 C 24,3 C 50 % 1018 hPa 0,0 l/m 0,0 m/s (0 Bft) W 260 0,00 min 8,43 klux 10,9 C 21,8 C
19.07.2004 20:20 21,0 C 24,1 C 51 % 1018 hPa 0,0 l/m 0,0 m/s (0 Bft) W 260 0,00 min 7,44 klux 10,5 C 21,0 C
19.07.2004 20:25 20,6 C 23,5 C 55 % 1018 hPa 0,0 l/m 0,0 m/s (0 Bft) W 260 0,00 min 7,20 klux 11,2 C 20,6 C
19.07.2004 20:30 19,8 C 23,1 C 57 % 1018 hPa 0,0 l/m 0,0 m/s (0 Bft) S-SW67.5 205 0,00 min 7,35 klux 11,0 C 19,8 C
19.07.2004 20:35 19,5 C 22,8 C 58 % 1018 hPa 0,0 l/m 0,0 m/s (0 Bft) O-SO 120 0,00 min 4,35 klux 11,0 C 19,5 C
19.07.2004 20:40 19,2 C 22,3 C 60 % 1018 hPa 0,0 l/m 0,0 m/s (0 Bft) O-SO 115 0,00 min 3,93 klux 11,2 C 19,2 C
19.07.2004 20:45 18,7 C 21,8 C 60 % 1018 hPa 0,0 l/m 0,0 m/s (0 Bft) O-SO 115 0,00 min 4,25 klux 10,8 C 18,7 C
19.07.2004 20:50 18,6 C 21,5 C 61 % 1018 hPa 0,0 l/m 0,0 m/s (0 Bft) O22.5 85 0,00 min 3,83 klux 10,9 C 18,6 C
19.07.2004 20:55 18,5 C 21,2 C 63 % 1018 hPa 0,0 l/m 0,0 m/s (0 Bft) N-NW 340 0,00 min 3,26 klux 11,3 C 18,5 C
19.07.2004 21:00 18,0 C 20,9 C 63 % 1018 hPa 0,0 l/m 0,0 m/s (0 Bft) N-NW 340 0,00 min 2,61 klux 10,8 C 18,0 C
19.07.2004 21:05 18,0 C 20,9 C 64 % 1018 hPa 0,0 l/m 0,0 m/s (0 Bft) N-NW 340 0,00 min 2,11 klux 11,1 C 18,0 C
19.07.2004 21:10 17,8 C 20,4 C 66 % 1018 hPa 0,0 l/m 0,0 m/s (0 Bft) N-NW 345 0,00 min 1,64 klux 11,4 C 17,8 C
19.07.2004 21:15 17,7 C 20,0 C 67 % 1018 hPa 0,0 l/m 0,0 m/s (0 Bft) N-NW 345 0,00 min 1,20 klux 11,5 C 17,7 C
19.07.2004 21:20 17,4 C 19,7 C 69 % 1018 hPa 0,0 l/m 0,0 m/s (0 Bft) N-NW 345 0,00 min 822 lux 11,7 C 17,4 C
19.07.2004 21:25 17,2 C 19,6 C 69 % 1018 hPa 0,0 l/m 0,0 m/s (0 Bft) O-NO 70 0,00 min 510 lux 11,5 C 17,2 C
19.07.2004 21:30 17,0 C 19,2 C 70 % 1018 hPa 0,0 l/m 0,0 m/s (0 Bft) O-NO 70 0,00 min 255 lux 11,5 C 17,0 C
19.07.2004 21:35 17,1 C 19,0 C 73 % 1018 hPa 0,0 l/m 0,0 m/s (0 Bft) O-NO 70 0,00 min 207 lux 12,2 C 17,1 C
19.07.2004 21:40 16,9 C 18,8 C 74 % 1018 hPa 0,0 l/m 0,0 m/s (0 Bft) O-NO 70 0,00 min 132 lux 12,2 C 16,9 C
19.07.2004 21:45 16,7 C 18,7 C 74 % 1018 hPa 0,0 l/m 0,0 m/s (0 Bft) O-NO 70 0,00 min 105 lux 12,0 C 16,7 C
19.07.2004 21:50 16,8 C 18,5 C 76 % 1018 hPa 0,0 l/m 0,0 m/s (0 Bft) O-NO 70 0,00 min 64 lux 12,5 C 16,8 C
19.07.2004 21:55 16,5 C 18,3 C 76 % 1018 hPa 0,0 l/m 0,0 m/s (0 Bft) O-NO 70 0,00 min 35 lux 12,3 C 16,5 C
19.07.2004 22:00 16,3 C 18,2 C 76 % 1018 hPa 0,0 l/m 0,0 m/s (0 Bft) O-NO 70 0,00 min 17 lux 12,1 C 16,3 C
19.07.2004 22:05 16,0 C 18,1 C 76 % 1018 hPa 0,0 l/m 0,0 m/s (0 Bft) O-NO 70 0,00 min 8 lux 11,8 C 16,0 C
19.07.2004 22:10 16,0 C 17,8 C 77 % 1018 hPa 0,0 l/m 0,0 m/s (0 Bft) O-NO 70 0,00 min 4 lux 12,0 C 16,0 C
19.07.2004 22:15 15,9 C 17,7 C 78 % 1018 hPa 0,0 l/m 0,0 m/s (0 Bft) O 90 0,00 min 0 lux 12,1 C 15,9 C
19.07.2004 22:20 15,8 C 17,6 C 80 % 1018 hPa 0,0 l/m 0,0 m/s (0 Bft) O 90 0,00 min 0 lux 12,4 C 15,8 C
19.07.2004 22:25 15,8 C 17,5 C 80 % 1018 hPa 0,0 l/m 0,0 m/s (0 Bft) O 90 0,00 min 0 lux 12,4 C 15,8 C
19.07.2004 22:30 15,6 C 17,3 C 81 % 1018 hPa 0,0 l/m 0,0 m/s (0 Bft) O 95 0,00 min 0 lux 12,3 C 15,6 C
19.07.2004 22:35 15,4 C 17,2 C 81 % 1018 hPa 0,0 l/m 0,0 m/s (0 Bft) O 95 0,00 min 0 lux 12,2 C 15,4 C
19.07.2004 22:40 15,3 C 17,1 C 82 % 1018 hPa 0,0 l/m 0,0 m/s (0 Bft) O 95 0,00 min 0 lux 12,2 C 15,3 C
19.07.2004 22:45 15,2 C 16,9 C 82 % 1018 hPa 0,0 l/m 0,0 m/s (0 Bft) O 95 0,00 min 0 lux 12,1 C 15,2 C
19.07.2004 22:50 15,1 C 16,8 C 82 % 1018 hPa 0,0 l/m 0,0 m/s (0 Bft) O 95 0,00 min 0 lux 12,0 C 15,1 C
19.07.2004 22:55 15,0 C 16,7 C 83 % 1018 hPa 0,0 l/m 0,0 m/s (0 Bft) O 95 0,00 min 0 lux 12,1 C 15,0 C
19.07.2004 23:00 14,9 C 16,6 C 83 % 1018 hPa 0,0 l/m 0,2 m/s (0 Bft) O 80 0,00 min 0 lux 12,0 C 14,9 C
19.07.2004 23:05 14,7 C 16,4 C 83 % 1018 hPa 0,0 l/m 0,1 m/s (0 Bft) O 80 0,00 min 0 lux 11,8 C 14,7 C
19.07.2004 23:10 14,7 C 16,3 C 84 % 1018 hPa 0,0 l/m 0,0 m/s (0 Bft) O22.5 95 0,00 min 0 lux 12,0 C 14,7 C
19.07.2004 23:15 14,5 C 16,1 C 84 % 1018 hPa 0,0 l/m 0,0 m/s (0 Bft) O-SO 115 0,00 min 0 lux 11,8 C 14,5 C
19.07.2004 23:20 14,4 C 16,0 C 84 % 1018 hPa 0,0 l/m 0,0 m/s (0 Bft) O-NO 75 0,00 min 0 lux 11,7 C 14,4 C
19.07.2004 23:25 14,4 C 16,0 C 84 % 1018 hPa 0,0 l/m 0,0 m/s (0 Bft) O 80 0,00 min 0 lux 11,7 C 14,4 C
19.07.2004 23:30 14,4 C 15,9 C 84 % 1018 hPa 0,0 l/m 0,0 m/s (0 Bft) O 85 0,00 min 0 lux 11,7 C 14,4 C
19.07.2004 23:35 14,3 C 15,8 C 84 % 1018 hPa 0,0 l/m 0,0 m/s (0 Bft) O 90 0,00 min 0 lux 11,6 C 14,3 C
19.07.2004 23:40 14,3 C 15,7 C 84 % 1018 hPa 0,0 l/m 0,0 m/s (0 Bft) O 90 0,00 min 0 lux 11,6 C 14,3 C
19.07.2004 23:45 14,5 C 15,7 C 84 % 1018 hPa 0,0 l/m 0,0 m/s (0 Bft) O 95 0,00 min 0 lux 11,8 C 14,5 C
19.07.2004 23:50 14,4 C 15,6 C 84 % 1018 hPa 0,0 l/m 0,0 m/s (0 Bft) SO 135 0,00 min 0 lux 11,7 C 14,4 C
19.07.2004 23:55 14,5 C 15,5 C 84 % 1018 hPa 0,0 l/m 0,1 m/s (0 Bft) O-NO22.5 60 0,00 min 0 lux 11,8 C 14,5 C
_ Min-Zeit 23:35 23:55 16:10 00:00 - 00:00 - - - - 17:10 06:30
Minimum _ 14,3 C 15,5 C 30 % 1016 hPa - 0,0 m/s (0 Bft) - - - - 5,9 C 13,2 C
_ Max-Zeit 19:10 15:35 00:55 08:45 03:40 14:30 - - 12:25 14:25 00:20 19:10
Maximum _ 25,4 C 31,9 C 95 % 1019 hPa 0,4 l/m 7,0 m/s
W-SW (4 Bft)
- - 10,00 min 102 klux 16,1 C 25,4 C
Durchschnitt _ 19,5 C 22,0 C 67 % 1018 hPa #0,7 l/m 1,8 m/s (2 Bft) W-SW - #11:00 h 34,7 klux 11,9 C 18,6 C